Regional Weather Roundup
Issued by NWS

Home | Current Version | Previous Version | Graphics & Text | Print | Product List | Glossary On
Versions: 1 2 3 4 5 6 7 8 9 10 11 12 13 14 15 16 17 18 19 20 21 22 23 24 25 26 27 28 29 30 31 32 33 34 35 36 37 38 39 40 41 42 43 44 45 46 47 48 49 50
000
ASUS43 KMPX 250010
RWRMN
WEATHER ROUNDUP FOR MINNESOTA
NATIONAL WEATHER SERVICE TWIN CITIES/CHANHASSEN MN
600 PM CST SAT FEB 24 2018


NOTE: "FAIR" INDICATES FEW OR NO CLOUDS BELOW 12,000 FEET WITH NO
SIGNIFICANT WEATHER AND/OR OBSTRUCTIONS TO VISIBILITY. N/A MEANS
CURRENT SKY AND/OR WEATHER CONDITIONS ARE NOT AVAILABLE.

MNZ060>063-068>070-250100-
   Twin Cities Metro

CITY           SKY/WX    TMP DP  RH WIND       PRES   REMARKS
TWIN CITIES    SNOW      28  28 100 N6        29.64F VSB 1/2 WCI  22
6HR MIN TEMP:  25; 6HR MAX TEMP:  28; 6HR PCP:  0.26;

ST PAUL        HVY SNOW  29  28  96 NE3       29.67F VSB 1/4
CRYSTAL        SNOW      26  24  92 E6        29.65F VSB 1/4 WCI  19
BLAINE           N/A     28  28 100 NE7       29.64F VSB 3/4 WCI  21
LAKEVILLE      SNOW      27  27 100 CALM      29.63F VSB 1/2
EDEN PRAIRIE   SNOW      27  25  92 N5        29.64F VSB 1/4 WCI  22
6HR MIN TEMP:  26; 6HR MAX TEMP:  27; 6HR PCP:  0.16;

SOUTH ST PAUL  SNOW      29  29  98 NE3       29.65F VSB 1/2
LAKE ELMO      SNOW      30  28  93 E7        29.65F VSB 1/2 WCI  23
$$
MNZ001>005-007-008-013>017-022>024-027-028-250100-
   Northwest Minnesota

CITY           SKY/WX    TMP DP  RH WIND       PRES   REMARKS
BEMIDJI        LGT SNOW  18  14  85 E9        29.71F VSB 1   WCI   7
HALLOCK        FAIR      18  10  73 SE12      29.75F WCI   5
ROSEAU         FAIR      19  12  73 CALM      29.76F
WARROAD        FAIR      21  12  68 NE3       29.77F
THIEF RVR FALL LGT SNOW  20  15  81 NE6       29.73F VSB 3/4 WCI  12
CROOKSTON      LGT SNOW  18  16  93 CALM      29.74F VSB 3/4
FOSSTON        LGT SNOW  19  12  73 E8        29.70F WCI   9
DETROIT LAKES  SNOW      21  19  93 E7        29.65F VSB 1/2 WCI  13
MOORHEAD       LGT SNOW  18  14  86 N8        29.69F WCI   7
PARK RAPIDS    LGT SNOW  19  15  84 NE8       29.64F FOG     WCI   9
MAHNOMEN       LGT SNOW  20  18  92 E8        29.68F VSB 1   WCI  11
$$
MNZ006-009>011-018-025>026-250100-
   North Central Minnesota

CITY           SKY/WX    TMP DP  RH WIND       PRES   REMARKS
BAUDETTE       CLOUDY    20  11  68 E6        29.76F WCI  12
FLAG ISLAND    FAIR      18  10  73 S3        29.77F
INTL FALLS     CLOUDY    24  13  62 SE5       29.80F WCI  18
6HR MIN TEMP:  23; 6HR MAX TEMP:  29;

WASKISH        CLOUDY    25  10  54 E7        29.75F WCI  17
LONGVILLE      CLOUDY    21  16  79 NE6       29.66F WCI  14
GRAND RAPIDS   CLOUDY    24  13  62 VRB6      29.72F WCI  17
CRANE LAKE     CLOUDY    25  18  74 CALM      29.84F
ORR            CLOUDY    25  12  58 CALM      29.76F
COOK             N/A     25  14  63 E3        29.79F
WALKER         LGT SNOW  18  16  90 NE12      29.68F WCI   6
$$
MNZ012-019>021-037-250100-
   Northeast Minnesota

CITY           SKY/WX    TMP DP  RH WIND       PRES   REMARKS
DULUTH         FLURRIES  24  18  77 E16       29.74F WCI  11
6HR MIN TEMP:  23; 6HR MAX TEMP:  27; 6HR PCP: TRACE;

ELY            FAIR      25  12  58 E5        29.81F WCI  19
HIBBING        LGT SNOW  23  17  78 NE10      29.73F WCI  12
EVELETH        MOCLDY    27  12  54 E3        29.80F
DULUTH HARBOR  LGT SNOW  27  23  86 NE29G35   29.80F WCI  11
TWO HARBORS    FAIR      27  19  74 NE9G16    29.77F WCI  17
SILVER BAY     MOCLDY    23  18  80 NE7       29.79F WCI  15
GRAND MARAIS     N/A     26  19  74 NE9       29.90F WCI  17
G MARAIS ARPRT FAIR      19  10  68 NE6       29.85F WCI  11
$$
MNZ029>031-032-039>041-046>048-054>057-064-250100-
   West Central Minnesota

CITY           SKY/WX    TMP DP  RH WIND       PRES   REMARKS
FERGUS FALLS   SNOW      19  18  93 E13       29.64F VSB 1/2 WCI   7
WHEATON        LGT SNOW  19  18  93 CALM      29.68F VSB 1
MORRIS         LGT SNOW  21  21 100 CALM      29.64F VSB 1
ALEXANDRIA     SNOW      22  20  92 E7        29.63R VSB 1/4 WCI  13
ELBOW LAKE     SNOW      22  20  96 SE5       29.65R VSB 1/4 WCI  15
WADENA         SNOW      19  18  93 NE9       29.63F VSB 1/2 WCI   9
GLENWOOD       SNOW      23  21  93 E9        29.63F VSB 1/4 WCI  13
APPLETON       LGT SNOW  18  16  93 W8        29.65F WCI   7
BENSON         MIX PCPN  25  21  86 SW6       29.66S VSB 3/4 WCI  18
ORTONVILLE     LGT SNOW  14  10  85 NW5       29.64F WCI   6
MADISON        LGT SNOW  16  12  86 W7        29.66F WCI   6
WILLMAR        CLOUDY    23  21  93 E10       29.64F VSB 3/4 WCI  12
$$
MNZ033>034-036-042>043-049>051-058-059-250100-
   Central Minnesota

CITY           SKY/WX    TMP DP  RH WIND       PRES   REMARKS
ST CLOUD       SNOW      25  24  96 E10       29.63F VSB 1/2 WCI  15
6HR MIN TEMP:  22; 6HR MAX TEMP:  25; 6HR PCP:  0.26;

SAUK CENTRE    SNOW      24  22  94 E9        29.63F VSB 1/2 WCI  14
PAYNESVILLE    SNOW      24  23  98 E10       29.63F VSB 1/2 WCI  13
AITKIN         LGT SNOW  21  19  93 NE12G18   29.62F WCI   9
PINE RIVER     LGT SNOW  21  14  73 NE9G17    29.69F WCI  11
BRAINERD       SNOW      24  20  84 E7        29.65F VSB 1/4 WCI  16
STAPLES        LGT SNOW  19  18  93 NE5       29.64F VSB 3/4 WCI  13
LONG PRAIRIE   HVY SNOW  23  21  93 N5        29.64R VSB<1/4 WCI  17
LITTLE FALLS   SNOW      27  23  86 E9        29.65S VSB 1/2 WCI  17
LITCHFIELD     SNOW      27  27 100 E9        29.63F VSB 1/2 WCI  17
BUFFALO        SNOW      26  24  93 NE8       29.66F VSB 1/2 WCI  17
MAPLE LAKE     SNOW      26  25  96 E14       29.65F VSB 1/2 WCI  15
HUTCHINSON     SNOW      26  25  95 E9        29.63F VSB 1/2 WCI  17
$$
MNZ037-044-045-052-053-250100-
   East Central Minnesota

CITY           SKY/WX    TMP DP  RH WIND       PRES   REMARKS
PRINCETON      HVY SNOW  27  25  93 E6        29.66S VSB<1/4 WCI  20
CAMBRIDGE      SNOW      28  25  86 E3        29.67F VSB 1/2
RUSH CITY      SNOW      27  26  94 NE7       29.67F VSB 1/2 WCI  20
MOOSE LAKE     LGT SNOW  23  19  86 NE7G18    29.71F VSB 1   WCI  15
HINCKLEY       SNOW      28  28 100 NE14      29.67F VSB 1/4 WCI  17
CLOQUET        FLURRIES  23  19  86 E10G18    29.74F WCI  12
MCGREGOR       CLOUDY    27  21  80 E13       29.70F WCI  16
$$
MNZ071>073-080-081-089-090-097-098-250100-
   Southwest Minnesota

CITY           SKY/WX    TMP DP  RH WIND       PRES   REMARKS
MONTEVIDEO     LGT SNOW  19  16  86 NW7       29.65S WCI  10
GRANITE FALLS  LGT SNOW  17  15  91 W12       29.66F WCI   4
CANBY          CLOUDY    15  11  87 W3        29.66F
MARSHALL       LGT SNOW  16  13  88 W5        29.64F FOG     WCI   9
REDWOOD FALLS  SNOW      24  23  96 E7        29.62F VSB 1/2 WCI  16
OLIVIA         SNOW      27  25  93 E8        29.61F VSB 1/2 WCI  18
PIPESTONE      CLOUDY    19  18  93 SW8       29.60F FOG     WCI   9
WORTHINGTON    LGT SNOW  20  17  88 S5        29.61F FOG     WCI  13
JACKSON        LGT SNOW  21  19  93 CALM      29.60F
TRACY          LGT SNOW  18  17  95 W5        29.62F WCI  11
SLAYTON        LGT SNOW  17  16  93 CALM      29.61F
$$
MNZ065>067-074>077-082>085-091>093-250100-
   South Central Minnesota

CITY           SKY/WX    TMP DP  RH WIND       PRES   REMARKS
MANKATO        SNOW      25  23  93 NE12      29.59F VSB 1/2 WCI  14
NEW ULM        HVY SNOW  25  21  86 E12       29.60F VSB<1/4 WCI  14
ST JAMES       HVY SNOW  21  21 100 N6        29.60F VSB 1/4 WCI  14
FAIRMONT       HVY SNOW  26  24  92 N6        29.59F VSB 1/4 WCI  19
GLENCOE        LGT SNOW  27  27 100 E8        29.62F VSB 1   WCI  18
FARIBAULT      MIX PCPN  27  25  93 CALM      29.63F VSB 1/2
OWATONNA       LGT SNOW  30  28  93 CALM      29.61F VSB 3/4
WASECA         LGT SNOW  30  28  93 NE7       29.61F VSB 3/4 WCI  23
ALBERT LEA     LGT SNOW  30  30 100 CALM      29.59F
$$
MNZ078>079-086>088-094>096-250100-
   Southeast Minnesota

CITY           SKY/WX    TMP DP  RH WIND       PRES   REMARKS
ROCHESTER      LGT SNOW  31  30  96 SE16      29.58F FOG     WCI  20
6HR MIN TEMP:  27; 6HR MAX TEMP:  31; 6HR PCP:  0.06;

RED WING       LGT SNOW  32  28  86 SE5       29.64R WCI  27
STANTON        SNOW      29  27  92 CALM      29.62F VSB 1/2
DODGE CENTER   LGT SNOW  30  28  93 SE5       29.60F VSB 3/4 WCI  25
WINONA         MIX PCPN  34  32  93 SE10      29.63F WCI  26
AUSTIN         LGT SNOW  30  30 100 CALM      29.60F VSB 3/4
PRESTON        MIX PCPN  31  30  94 SE9       29.60F WCI  23
$$
ABBREVIATIONS USED IN REMARKS
   TC - TEMPERATURES IN CELSIUS
  WCI - WIND CHILL INDEX
   HX - HEAT INDEX
  VSB - VISIBILITY
$$



USA.gov is the U.S. government's official web portal to all federal, state and local government web resources and services.